Temp
7 8 8 8 8 8 8 8 8 8 8 8 8 7 8 9 9 9 9 10 10 11 11 11 11 11 12 13 13 14 18 19 19 19 20 19 20 20 19 20 20 20 20 19 19
7 7 8 8 8 7 8 7 8 8 8 8 8 8 8 9 9 9 10 10 10 10 11 11 11 12 13 14 14 16 17 19 20 20 19 19 19 19 19 20 20 20 19 18 19
7 7 8 8 8 8 8 7 8 8 8 8 8 8 8 8 9 10 10 10 10 10 9 10 11 12 13 13 14 15 17 19 16 17 16 17 17 17 19 20 20 21 20 18 18
5 5 7 7 7 7 7 8 7 8 7 7 8 8 8 8 12 9 9 10 10 10 9 10 11 12 13 14 14 14 15 15 16 15 15 16 16 17 17 19 20 17 17 17 18
3 3 5 7 7 7 7 7 7 8 7 7 7 7 7 7 9 9 9 10 9 9 9 9 11 12 13 13 13 14 15 14 14 13 14 14 15 16 17 17 17 16 16 17 18
2 2 4 5 6 7 7 7 7 7 7 7 7 7 6 9 9 9 9 10 9 9 9 10 11 11 12 12 13 13 13 13 13 13 13 14 15 15 15 16 16 16 17 17 17
2 2 2 3 5 6 7 7 7 7 7 7 6 6 6 8 9 9 9 9 10 9 9 9 10 10 11 12 11 12 12 14 14 14 14 13 14 15 15 15 16 16 17 17 17
2 2 2 3 4 5 6 7 7 7 6 7 6 6 7 8 8 8 8 9 9 9 9 9 10 10 11 10 11 12 12 13 15 14 14 13 15 17 16 16 16 16 16 17 17
1 2 2 2 3 4 6 6 6 6 6 6 6 5 8 7 7 8 8 8 8 8 9 9 9 9 10 12 12 12 14 13 14 15 15 14 15 17 14 15 15 15 16 16 16
1 2 2 3 3 4 6 6 6 5 5 5 5 6 6 7 7 8 8 8 8 8 8 9 10 11 12 12 13 14 12 13 13 14 13 13 14 15 15 14 15 15 15 15 15
1 1 2 2 3 4 5 7 5 5 4 7 6 7 6 6 7 7 7 7 8 9 10 9 10 10 11 12 13 11 11 11 12 13 12 13 13 15 15 14 14 15 15 15 15
1 2 2 2 3 2 4 5 5 6 6 6 6 6 6 6 7 6 7 9 9 9 10 9 8 11 11 11 10 10 10 11 12 13 12 12 12 13 14 14 14 15 15 15 15
1 1 1 2 3 3 3 5 7 8 8 5 5 6 6 6 8 7 7 8 10 9 9 10 10 10 10 10 9 9 8 9 10 12 12 11 12 16 17 16 15 14 14 14 15
1 1 1 1 2 2 3 4 5 8 6 6 5 6 6 7 8 7 7 8 8 9 9 9 10 9 9 9 10 10 11 10 10 9 9 10 12 15 16 16 16 16 15 15 15
1 1 1 1 1 3 4 5 4 6 8 7 5 5 6 8 7 6 7 8 9 8 8 9 8 8 8 9 9 9 10 9 10 9 9 10 7 14 14 14 16 17 17 16 15
0 1 1 1 1 3 3 4 4 5 7 6 5 6 6 7 8 6 7 7 8 9 8 10 8 9 10 10 10 9 9 8 9 9 8 10 9 13 16 17 17 17 17 16 16
1 2 1 2 1 2 3 2 4 7 7 5 6 6 7 7 8 8 7 6 8 6 7 8 9 9 8 8 8 8 6 8 8 8 10 13 12 12 16 15 15 17 16 15 14
2 3 3 2 2 2 2 3 6 7 7 7 7 7 7 8 8 7 7 7 9 8 7 8 9 9 8 8 9 7 8 9 10 11 12 12 11 14 16 15 15 14 14 13 13
1 2 2 2 2 2 2 4 6 8 8 7 7 6 6 7 8 7 8 8 9 8 7 8 7 8 9 9 9 6 6 9 7 9 9 11 13 15 16 15 15 14 12 13 12
1 1 2 2 2 2 2 5 6 8 8 8 7 8 7 7 7 8 8 9 9 10 9 8 7 8 8 8 8 7 9 7 6 7 9 12 13 13 15 14 14 13 13 12 11
1 1 2 2 2 1 4 4 6 7 8 8 8 7 8 8 8 8 9 8 9 9 9 9 7 7 6 6 8 6 6 6 8 8 9 10 13 15 15 15 14 13 12 11 10
1 2 1 2 2 2 5 6 7 7 7 8 9 9 9 8 8 8 8 8 8 8 8 9 7 6 7 10 10 11 9 8 6 8 7 8 10 15 14 13 12 13 12 10 9
1 2 2 2 4 4 4 6 7 7 7 8 8 9 9 8 8 9 8 8 7 8 9 9 6 6 8 8 9 7 9 9 7 7 7 8 11 14 14 13 13 12 11 10 9
2 3 2 2 3 5 5 6 6 6 8 8 8 9 9 8 8 7 7 8 7 8 7 8 7 7 9 10 9 6 8 6 5 6 9 8 10 12 13 13 14 13 12 10 8
3 2 3 3 4 5 7 7 7 7 7 8 8 9 8 7 7 6 8 8 7 7 7 8 5 7 7 8 7 7 7 7 6 6 6 10 11 12 13 12 13 12 10 10 9
3 4 3 5 5 6 7 8 8 6 8 7 8 8 8 8 8 8 7 8 9 7 8 8 6 6 6 8 8 7 7 7 7 6 6 7 9 11 12 11 11 10 10 9 8
2 3 4 5 5 7 7 8 8 8 7 8 8 8 8 8 7 7 7 7 7 8 7 7 6 6 7 9 9 9 8 8 7 7 8 7 9 11 11 11 10 9 7 8 8
Height
1499 1497 1496 1495 1494 1494 1494 1492 1490 1489 1489 1489 1488 1488 1489 1490 1492 1493 1495 1498 1498 1498 1498 1500 1503 1504 1505 1505 1505 1506 1502 1497 1494 1495 1494 1498 1498 1498 1500 1499 1499 1500 1500 1499 1499
1494 1492 1492 1491 1491 1490 1491 1490 1488 1487 1487 1487 1486 1486 1487 1489 1490 1490 1492 1493 1495 1496 1497 1498 1502 1505 1504 1503 1504 1501 1497 1492 1490 1492 1494 1496 1497 1496 1498 1496 1496 1498 1498 1497 1497
1489 1488 1487 1486 1487 1487 1487 1486 1485 1484 1484 1484 1483 1484 1486 1487 1490 1486 1488 1490 1492 1493 1495 1495 1500 1503 1503 1502 1501 1498 1494 1492 1495 1496 1498 1497 1497 1497 1495 1492 1493 1494 1495 1496 1497
1483 1483 1482 1482 1483 1483 1484 1484 1484 1482 1483 1482 1481 1483 1484 1486 1486 1482 1483 1485 1488 1490 1493 1493 1499 1501 1501 1498 1498 1498 1496 1496 1496 1496 1498 1496 1496 1494 1492 1489 1491 1494 1494 1493 1494
1480 1478 1477 1477 1478 1479 1480 1480 1481 1480 1481 1480 1480 1481 1483 1484 1483 1480 1481 1483 1484 1487 1490 1491 1496 1499 1498 1497 1499 1497 1495 1496 1496 1497 1496 1496 1492 1491 1488 1488 1490 1490 1490 1490 1491
1478 1475 1473 1472 1472 1474 1474 1475 1478 1477 1478 1478 1478 1480 1482 1482 1477 1479 1480 1481 1483 1485 1489 1491 1493 1497 1498 1497 1498 1496 1496 1495 1494 1493 1493 1492 1486 1489 1480 1484 1485 1485 1484 1485 1486
1474 1472 1470 1467 1466 1468 1469 1470 1473 1474 1475 1476 1477 1478 1477 1479 1475 1476 1478 1480 1483 1486 1487 1490 1492 1496 1497 1497 1498 1496 1494 1489 1486 1487 1486 1488 1479 1475 1474 1479 1477 1477 1477 1477 1479
1470 1466 1464 1462 1461 1461 1463 1464 1468 1470 1472 1473 1475 1477 1474 1473 1473 1474 1476 1479 1482 1486 1487 1489 1491 1495 1495 1497 1495 1492 1492 1484 1480 1483 1483 1486 1469 1467 1468 1470 1470 1470 1471 1471 1472
1465 1460 1458 1456 1455 1454 1456 1459 1462 1466 1468 1471 1474 1476 1472 1471 1472 1471 1475 1480 1483 1485 1488 1489 1491 1492 1494 1492 1491 1488 1480 1484 1481 1479 1480 1481 1466 1465 1468 1467 1466 1466 1466 1466 1466
1459 1455 1451 1450 1449 1448 1450 1453 1456 1462 1466 1470 1472 1476 1470 1470 1468 1468 1474 1480 1483 1486 1490 1491 1490 1489 1489 1489 1479 1477 1484 1480 1481 1479 1480 1475 1466 1465 1466 1465 1462 1461 1460 1460 1459
1452 1450 1446 1444 1443 1442 1448 1447 1450 1457 1458 1460 1463 1465 1466 1467 1467 1469 1475 1480 1482 1485 1484 1488 1487 1484 1482 1484 1481 1487 1486 1485 1483 1481 1479 1469 1459 1459 1459 1456 1455 1453 1452 1451 1451
1446 1444 1442 1440 1438 1437 1436 1433 1436 1441 1455 1455 1460 1464 1465 1465 1467 1471 1475 1479 1479 1478 1483 1488 1484 1478 1483 1485 1488 1489 1487 1483 1479 1478 1481 1468 1445 1453 1450 1441 1443 1442 1441 1441 1442
1441 1439 1437 1435 1433 1431 1430 1430 1436 1437 1446 1454 1456 1460 1463 1466 1466 1469 1474 1475 1475 1478 1477 1474 1477 1478 1482 1483 1487 1488 1489 1487 1483 1476 1476 1470 1437 1425 1422 1427 1428 1430 1431 1431 1431
1435 1433 1432 1431 1431 1425 1426 1427 1430 1438 1448 1450 1453 1453 1459 1464 1465 1466 1470 1474 1475 1473 1478 1477 1476 1480 1482 1482 1483 1480 1480 1483 1482 1483 1480 1474 1444 1423 1419 1419 1421 1421 1421 1420 1421
1428 1424 1425 1427 1425 1423 1423 1424 1431 1436 1432 1444 1449 1451 1453 1459 1461 1464 1468 1471 1470 1472 1475 1472 1475 1478 1480 1479 1483 1481 1480 1481 1480 1479 1479 1468 1481 1414 1421 1419 1415 1414 1413 1413 1414
1419 1414 1414 1418 1420 1421 1422 1419 1426 1438 1423 1438 1443 1446 1452 1456 1458 1462 1467 1471 1471 1471 1472 1470 1475 1476 1473 1476 1479 1481 1482 1482 1478 1479 1469 1452 1463 1410 1406 1402 1403 1408 1408 1408 1409
1406 1401 1403 1407 1414 1417 1421 1421 1425 1412 1428 1435 1436 1441 1445 1450 1454 1457 1462 1466 1465 1472 1471 1468 1466 1471 1474 1477 1478 1481 1487 1473 1472 1471 1447 1430 1439 1410 1399 1404 1404 1401 1404 1404 1403
1396 1394 1395 1398 1408 1416 1420 1426 1412 1413 1418 1428 1431 1438 1442 1447 1451 1455 1460 1462 1461 1462 1466 1462 1459 1463 1469 1469 1467 1474 1475 1464 1454 1439 1431 1434 1423 1399 1393 1399 1400 1404 1402 1401 1397
1397 1395 1394 1396 1403 1411 1417 1419 1409 1408 1415 1424 1435 1439 1444 1446 1447 1453 1455 1453 1453 1460 1465 1462 1465 1463 1464 1464 1469 1473 1472 1465 1467 1452 1451 1427 1402 1391 1389 1391 1397 1398 1400 1398 1393
1398 1397 1398 1400 1404 1411 1418 1415 1412 1411 1413 1420 1424 1430 1437 1443 1444 1447 1448 1447 1450 1453 1458 1459 1464 1460 1462 1466 1465 1465 1462 1467 1468 1451 1433 1405 1401 1393 1385 1388 1391 1395 1394 1395 1390
1395 1397 1399 1403 1408 1414 1410 1414 1412 1415 1414 1417 1421 1428 1429 1435 1439 1441 1443 1448 1449 1451 1455 1458 1463 1460 1464 1459 1450 1461 1462 1461 1452 1442 1429 1414 1391 1378 1382 1382 1388 1391 1391 1390 1388
1395 1394 1400 1404 1411 1412 1413 1414 1415 1417 1417 1417 1420 1423 1427 1432 1437 1439 1441 1444 1448 1451 1453 1455 1459 1457 1450 1440 1443 1439 1439 1445 1447 1431 1427 1420 1390 1381 1385 1388 1389 1387 1388 1387 1385
1394 1398 1406 1407 1408 1413 1416 1413 1415 1415 1416 1417 1421 1423 1428 1431 1436 1437 1441 1445 1447 1449 1448 1452 1457 1450 1436 1438 1439 1441 1432 1430 1433 1430 1417 1412 1380 1375 1382 1385 1385 1385 1384 1384 1383
1398 1399 1407 1411 1410 1412 1412 1412 1414 1418 1419 1420 1424 1426 1428 1431 1436 1440 1442 1445 1446 1448 1450 1451 1447 1443 1430 1424 1427 1436 1425 1428 1431 1422 1396 1393 1376 1379 1381 1381 1380 1378 1380 1381 1380
1400 1404 1405 1409 1412 1413 1412 1416 1416 1417 1421 1423 1426 1426 1428 1433 1438 1441 1440 1443 1446 1446 1448 1448 1448 1442 1435 1427 1425 1422 1415 1411 1415 1406 1406 1369 1378 1370 1374 1376 1374 1376 1378 1376 1375
1405 1407 1410 1409 1413 1414 1414 1414 1414 1419 1419 1424 1424 1427 1430 1431 1434 1434 1438 1440 1436 1443 1443 1444 1442 1439 1430 1419 1414 1409 1403 1398 1395 1395 1394 1390 1378 1373 1373 1372 1374 1374 1372 1373 1372
1406 1406 1408 1410 1412 1413 1413 1415 1416 1417 1423 1424 1425 1427 1429 1431 1434 1436 1437 1438 1436 1435 1438 1439 1442 1441 1422 1411 1403 1393 1393 1391 1388 1386 1384 1384 1371 1370 1370 1371 1372 1371 1368 1369 1368
Wind_Speed
16 18 16 18 17 17 18 16 13 12 12 9 8 6 8 10 13 15 17 11 10 16 7 6 6 5 7 7 7 6 8 13 20 15 11 5 10 10 4 8 4 5 4 1 3
13 18 17 16 18 16 16 16 14 12 11 10 8 9 9 10 12 18 18 12 7 9 10 8 6 7 7 9 8 11 10 16 8 11 7 8 6 4 6 10 12 9 3 3 6
18 15 19 17 19 19 15 15 15 12 10 9 8 9 10 10 7 10 18 15 15 12 8 10 7 6 9 8 9 9 14 11 7 8 5 10 11 9 12 13 16 13 7 2 1
21 19 16 20 18 20 18 14 14 12 10 8 8 7 9 8 6 6 10 15 18 15 11 11 8 7 7 9 8 8 13 12 7 9 7 10 9 13 17 24 12 10 11 11 10
23 16 13 20 22 19 21 14 13 12 11 8 7 6 7 7 8 7 4 5 10 21 16 12 10 8 9 4 6 11 10 9 11 11 13 15 20 21 23 23 21 21 18 19 19
23 23 19 15 19 24 23 17 12 11 12 9 7 7 6 8 9 13 6 2 5 17 19 15 8 8 3 4 9 2 8 11 11 15 16 17 24 22 27 25 28 28 31 30 26
23 23 21 19 14 23 21 23 14 11 12 10 8 7 7 9 6 8 13 10 5 13 18 16 12 8 7 5 6 6 10 12 16 15 14 12 20 20 33 29 31 29 29 28 30
24 22 21 21 20 16 22 27 18 13 12 10 7 6 6 6 10 9 11 10 10 11 10 14 14 8 6 4 3 4 5 5 4 3 6 9 15 6 7 19 20 23 28 31 31
25 25 21 21 23 14 23 24 19 15 13 10 7 5 4 4 9 8 15 11 13 11 9 10 10 5 5 6 5 7 7 8 10 8 7 12 11 6 4 9 15 16 17 19 24
25 26 22 22 18 17 24 23 23 18 16 10 5 4 7 4 6 11 17 15 11 15 11 6 4 5 7 8 6 5 12 10 11 1 8 16 22 20 25 27 26 24 24 25 24
24 22 21 18 17 19 19 23 20 12 21 8 9 2 5 7 9 9 18 14 13 13 8 9 6 11 14 13 12 4 7 10 9 9 18 21 24 22 26 30 30 31 31 32 31
21 18 20 22 19 20 20 13 28 13 7 17 10 10 6 8 5 9 20 12 15 13 9 6 11 12 8 10 12 14 16 17 15 13 12 20 33 25 27 32 35 33 34 35 35
22 22 20 21 20 23 21 22 29 21 5 8 18 12 6 8 4 13 20 9 12 12 16 8 2 4 13 12 13 15 16 15 18 17 18 21 27 16 8 12 19 28 34 35 34
27 24 22 22 16 14 14 15 27 11 3 9 9 8 16 9 5 11 19 8 5 12 10 9 11 6 9 12 12 15 8 13 14 11 8 2 11 17 15 13 12 15 18 23 24
27 28 27 18 12 13 10 21 28 16 7 11 7 9 14 14 12 8 17 5 8 8 6 3 6 11 13 15 10 7 6 7 9 12 14 17 7 11 3 11 10 14 18 18 19
38 34 21 20 19 18 8 26 25 5 6 8 8 12 13 17 8 8 11 4 4 7 8 10 2 5 8 10 13 0 7 10 11 8 9 18 15 20 14 10 8 7 13 16 16
45 32 19 21 17 12 8 17 4 5 6 9 9 12 14 12 10 9 11 10 7 6 8 5 16 8 8 7 7 11 3 3 4 6 8 2 11 22 6 6 13 21 18 18 21
26 9 15 18 27 15 13 2 3 6 7 5 13 16 7 16 7 9 11 10 14 6 2 3 3 13 12 15 5 13 13 6 6 6 8 2 12 8 9 11 15 9 12 14 18
13 8 3 13 16 15 16 5 3 6 11 12 12 8 5 11 5 8 9 8 9 14 6 5 5 2 11 7 12 5 10 13 13 21 13 13 22 25 25 22 14 10 6 13 15
14 3 5 16 20 19 4 2 2 6 18 17 6 7 9 14 9 12 12 4 10 14 13 2 4 6 2 8 11 10 0 4 6 6 11 14 17 13 9 3 9 2 7 15 17
7 3 13 20 22 9 2 1 5 16 14 3 7 9 8 12 10 10 5 3 8 10 16 7 5 3 4 13 14 9 6 6 8 9 7 14 12 2 11 12 5 2 7 11 16
5 1 17 24 3 2 3 3 9 10 3 4 6 8 13 10 9 8 8 4 9 11 10 11 4 8 14 10 13 15 16 20 9 12 10 17 20 6 3 8 4 7 10 13 13
3 7 22 9 3 3 2 3 4 4 3 3 4 4 3 7 5 7 5 2 12 10 10 11 6 4 4 3 6 9 16 23 19 13 19 10 14 3 8 13 9 7 12 14 13
3 3 5 5 1 5 4 4 5 6 5 8 8 7 6 4 1 3 6 2 11 14 8 13 5 8 9 11 4 10 18 13 17 12 22 21 33 23 15 15 14 21 16 12 9
5 3 2 3 4 5 1 4 8 4 4 4 4 4 4 3 4 3 7 3 5 10 9 8 5 10 18 24 21 23 26 25 18 24 16 29 23 25 17 18 18 21 11 12 8
5 2 2 6 11 9 5 5 5 4 3 3 4 5 4 4 4 5 7 7 4 9 9 7 5 5 15 22 21 20 21 20 17 18 19 27 28 25 23 26 17 15 15 17 10
18 6 1 9 7 9 6 6 6 7 2 3 4 4 4 7 7 10 9 5 4 5 12 5 3 3 7 15 24 6 5 8 7 9 10 15 20 14 13 8 11 14 17 14 14
Wind_Direction
306 287 293 277 282 296 312 306 282 278 277 266 249 248 207 204 203 223 233 237 239 234 209 188 198 214 187 189 181 183 225 228 226 236 229 205 222 219 232 238 219 207 244 250 301
326 302 286 285 272 280 299 309 290 277 275 264 239 226 203 202 210 230 242 233 219 228 209 182 191 204 200 192 189 207 226 236 245 244 233 209 234 226 230 210 223 215 217 299 287
297 322 285 283 270 268 279 301 301 275 267 256 239 224 216 213 229 242 241 235 220 224 186 174 174 194 209 189 190 203 231 228 228 231 233 242 237 239 243 243 230 224 235 283 295
299 292 307 278 273 262 264 281 296 271 257 249 241 226 207 194 221 195 219 223 225 206 183 156 168 189 214 202 197 224 238 236 242 230 249 244 262 245 241 243 246 249 267 270 265
329 299 310 275 273 265 252 254 282 268 249 243 238 225 187 206 232 187 178 207 215 209 192 172 181 198 222 211 203 229 245 243 243 249 254 263 252 259 261 251 252 258 259 259 260
323 318 278 294 275 260 252 235 257 263 244 236 236 223 203 229 224 218 202 172 195 191 198 187 194 202 228 226 231 218 256 262 260 255 261 261 262 254 253 257 255 254 253 253 252
314 311 310 293 304 251 243 235 232 246 237 231 228 224 230 241 208 202 210 219 200 189 192 191 188 177 179 207 229 261 278 270 260 254 260 259 262 244 254 250 252 250 249 249 246
314 297 300 282 279 269 235 233 217 218 217 217 217 228 244 238 218 193 177 175 169 188 191 192 198 185 206 168 198 248 258 274 111 189 233 207 261 234 264 241 249 255 253 248 245
308 308 299 298 278 287 230 232 206 199 193 192 211 221 253 222 218 183 177 158 155 145 143 159 162 149 167 221 244 216 259 238 282 244 270 217 280 261 258 243 255 261 262 253 250
304 303 304 288 291 271 221 225 197 182 176 168 193 239 226 202 180 172 176 168 147 141 129 145 153 183 215 205 234 252 232 246 256 192 274 272 269 270 267 271 268 263 260 257 253
299 305 308 295 285 262 220 192 153 165 166 180 186 163 133 150 138 163 168 157 155 174 182 194 206 211 219 225 248 287 269 259 263 276 294 277 274 273 273 268 264 260 258 258 256
311 308 308 310 282 280 237 233 170 170 178 197 162 199 148 151 139 160 166 170 180 197 180 183 232 236 223 226 239 253 264 269 283 279 282 291 285 283 271 261 258 257 257 254 255
314 309 297 301 287 292 270 207 182 144 108 174 211 212 187 198 175 178 177 174 185 175 195 201 137 228 211 222 236 247 256 267 268 287 290 288 284 266 264 257 256 250 253 255 251
308 302 299 308 286 268 277 219 178 165 145 168 191 211 192 172 218 177 177 167 174 201 190 233 226 181 190 224 233 261 258 257 273 284 275 71 291 285 279 277 254 254 246 249 250
300 297 293 279 262 262 282 217 189 162 193 135 151 157 172 178 137 172 185 197 184 167 176 168 184 203 224 232 221 243 241 252 267 271 286 254 251 277 175 270 260 264 268 267 256
312 307 287 257 237 239 250 181 157 137 198 153 139 167 153 191 161 132 170 200 195 203 233 250 195 201 219 218 214 3 234 247 260 255 250 243 209 274 267 274 254 235 294 295 283
317 302 258 238 211 219 208 148 124 195 166 148 168 159 158 172 161 155 174 178 180 177 216 237 236 212 198 221 213 220 178 256 226 211 249 293 213 248 258 224 261 289 309 305 298
335 315 268 233 221 220 184 154 187 115 141 154 144 146 157 155 174 166 168 190 218 202 137 224 236 201 184 215 207 205 211 230 257 244 300 30 247 244 253 258 268 285 303 315 324
350 357 126 189 193 160 153 193 158 163 140 141 131 140 133 169 161 167 194 204 204 197 200 186 251 174 193 203 206 169 215 235 277 271 271 252 263 278 267 256 251 253 300 317 328
350 360 114 147 162 167 120 133 216 145 133 145 131 187 165 173 164 185 185 205 214 197 205 183 262 205 199 216 231 210 0 190 198 257 248 252 256 259 258 261 171 264 343 338 336
349 216 155 150 153 115 138 53 101 140 132 154 128 142 157 168 183 183 171 163 203 189 190 188 209 151 168 208 204 193 219 215 273 245 261 271 262 336 275 250 219 298 352 349 341
314 153 152 157 113 77 121 201 124 148 111 103 94 100 150 163 171 181 198 234 178 159 192 192 214 243 233 243 228 240 237 222 233 238 236 250 261 232 206 172 223 312 337 348 348
82 101 144 154 131 128 212 127 120 129 49 98 99 76 129 154 148 182 188 168 179 185 182 169 216 279 236 210 216 237 238 237 239 261 244 249 262 85 210 234 260 293 328 331 338
79 84 81 124 103 115 128 65 101 50 72 74 105 94 111 118 162 153 205 207 198 207 204 186 222 237 260 282 312 259 264 243 232 246 256 239 259 257 261 266 261 274 305 313 334
50 58 111 146 141 125 49 112 145 111 75 86 102 119 140 139 162 206 208 221 194 208 199 200 253 248 260 272 279 272 275 277 247 240 246 262 252 266 273 277 284 286 282 312 313
53 117 140 137 143 177 143 188 147 111 132 122 110 151 174 166 188 193 191 218 222 187 196 208 267 303 287 278 270 276 274 275 261 251 250 257 266 273 281 274 271 262 282 292 279
359 9 144 145 161 176 176 178 164 133 124 134 155 168 201 228 234 245 222 253 263 207 198 215 236 291 277 317 309 284 317 288 270 253 255 242 253 274 280 263 296 287 292 281 287